| time (UTC) | temp F | wind direction | speed knots | gust knots | rain 1hr in | rain 24hr in | rain mn in | humidity % | barometer mb |
| 20260504150940 | 75 | 136 | 7.0 | 11.3 | 0.00 | 0.00 | 0.00 | 70 | 1016.1 |
| 20260504150437 | 75 | 157 | 5.2 | 11.3 | 0.00 | 0.00 | 0.00 | 70 | 1015.9 |
| 20260504140903 | 71 | 136 | 3.5 | 6.1 | 0.00 | 0.00 | 0.00 | 79 | 1016.0 |
| 20260504140359 | 71 | 149 | 3.5 | 5.2 | 0.00 | 0.00 | 0.00 | 79 | 1016.2 |
| 20260504130325 | 62 | 158 | 0.0 | 0.0 | 0.00 | 0.00 | 0.00 | 95 | 1015.9 |
| 20260504120248 | 55 | 157 | 0.0 | 0.0 | 0.00 | 0.00 | 0.00 | 95 | 1015.9 |
| 20260504110716 | 55 | 157 | 0.0 | 0.0 | 0.00 | 0.00 | 0.00 | 94 | 1015.5 |
| 20260504110212 | 55 | 157 | 0.0 | 0.0 | 0.00 | 0.00 | 0.00 | 94 | 1015.6 |
| 20260504100130 | 0 | 0.0 | 0.0 | 0.00 | 0.00 | 0.00 | 1016.2 | ||
| 20260504081523 | 55 | 157 | 0.0 | 0.0 | 0.00 | 0.00 | 0.00 | 92 | 1016.9 |
| 20260504081019 | 55 | 157 | 0.0 | 0.0 | 0.00 | 0.00 | 0.00 | 92 | 1017.0 |
| 20260504080515 | 55 | 157 | 0.0 | 0.0 | 0.00 | 0.00 | 0.00 | 92 | 1017.0 |
| 20260504050328 | 59 | 158 | 0.0 | 0.0 | 0.00 | 0.00 | 0.00 | 85 | 1019.0 |
| 20260504045825 | 59 | 158 | 0.0 | 0.0 | 0.00 | 0.00 | 0.00 | 85 | 1018.9 |
| 20260504045320 | 59 | 158 | 0.0 | 0.0 | 0.00 | 0.00 | 0.00 | 85 | 1018.8 |
| 20260504044817 | 59 | 158 | 0.0 | 0.0 | 0.00 | 0.00 | 0.00 | 84 | 1019.0 |
| 20260504044315 | 59 | 157 | 0.0 | 0.0 | 0.00 | 0.00 | 0.00 | 85 | 1018.9 |
| 20260504043812 | 59 | 167 | 0.0 | 0.0 | 0.00 | 0.00 | 0.00 | 85 | 1018.8 |
| 20260504043308 | 59 | 167 | 0.0 | 0.0 | 0.00 | 0.00 | 0.00 | 85 | 1019.0 |
| 20260504042806 | 59 | 168 | 0.0 | 0.0 | 0.00 | 0.00 | 0.00 | 85 | 1019.3 |
| 20260504042304 | 59 | 168 | 0.0 | 0.0 | 0.00 | 0.00 | 0.00 | 85 | 1019.1 |
| 20260504041759 | 59 | 167 | 0.0 | 0.0 | 0.00 | 0.00 | 0.00 | 86 | 1019.1 |
| 20260504041255 | 59 | 170 | 0.0 | 0.0 | 0.00 | 0.00 | 0.00 | 86 | 1019.0 |
| 20260504040751 | 59 | 172 | 0.0 | 0.0 | 0.00 | 0.00 | 0.00 | 86 | 1019.1 |
| 20260504040249 | 59 | 148 | 0.0 | 0.0 | 0.00 | 0.00 | 0.00 | 86 | 1018.9 |
| 20260504035744 | 59 | 148 | 0.0 | 0.0 | 0.00 | 0.00 | 0.00 | 86 | 1018.8 |
| 20260504035242 | 60 | 147 | 0.0 | 0.0 | 0.00 | 0.00 | 0.00 | 85 | 1018.8 |
| 20260504034739 | 60 | 147 | 0.0 | 0.0 | 0.00 | 0.00 | 0.00 | 85 | 1019.0 |
| 20260504034236 | 60 | 147 | 0.0 | 0.9 | 0.00 | 0.00 | 0.00 | 84 | 1018.8 |
| 20260504033734 | 60 | 148 | 0.0 | 0.0 | 0.00 | 0.00 | 0.00 | 84 | 1018.9 |
| 20260504033231 | 60 | 148 | 0.0 | 0.0 | 0.00 | 0.00 | 0.00 | 84 | 1018.9 |
| 20260504032728 | 60 | 148 | 0.0 | 0.0 | 0.00 | 0.00 | 0.00 | 85 | 1019.0 |
| 20260504032225 | 60 | 147 | 0.9 | 0.9 | 0.00 | 0.00 | 0.00 | 86 | 1018.9 |
| 20260504031722 | 60 | 147 | 0.9 | 0.9 | 0.00 | 0.00 | 0.00 | 86 | 1018.9 |
| 20260504031219 | 60 | 147 | 0.0 | 0.9 | 0.00 | 0.00 | 0.00 | 86 | 1018.8 |
| 20260504030715 | 60 | 147 | 0.0 | 0.0 | 0.00 | 0.00 | 0.00 | 85 | 1018.8 |
| 20260504030213 | 60 | 147 | 0.0 | 0.0 | 0.00 | 0.00 | 0.00 | 85 | 1018.9 |
| 20260504025709 | 60 | 147 | 0.0 | 0.0 | 0.00 | 0.00 | 0.00 | 85 | 1018.9 |
| 20260504025206 | 60 | 147 | 1.7 | 1.7 | 0.00 | 0.00 | 0.00 | 85 | 1019.0 |
| 20260504024703 | 60 | 147 | 0.0 | 0.0 | 0.00 | 0.00 | 0.00 | 85 | 1018.8 |
| 20260504024159 | 60 | 147 | 0.0 | 0.9 | 0.00 | 0.00 | 0.00 | 84 | 1018.8 |
| 20260504023656 | 61 | 147 | 0.0 | 0.9 | 0.00 | 0.00 | 0.00 | 84 | 1018.8 |
| 20260504023152 | 61 | 147 | 0.9 | 0.9 | 0.00 | 0.00 | 0.00 | 83 | 1018.7 |
| 20260504022648 | 61 | 147 | 0.0 | 0.9 | 0.00 | 0.00 | 0.00 | 82 | 1018.8 |
| 20260504022144 | 61 | 149 | 0.0 | 0.9 | 0.00 | 0.00 | 0.00 | 82 | 1018.9 |
| 20260504021642 | 62 | 149 | 0.0 | 0.9 | 0.00 | 0.00 | 0.00 | 81 | 1018.6 |
| 20260504021139 | 62 | 140 | 0.9 | 1.7 | 0.00 | 0.00 | 0.00 | 81 | 1018.5 |
| 20260504020636 | 62 | 151 | 0.9 | 1.7 | 0.00 | 0.00 | 0.00 | 80 | 1018.6 |
| 20260504020132 | 62 | 151 | 0.0 | 0.0 | 0.00 | 0.00 | 0.00 | 79 | 1018.6 |
| 20260504015629 | 63 | 151 | 0.9 | 0.9 | 0.00 | 0.00 | 0.00 | 78 | 1018.5 |
| 20260504015125 | 63 | 150 | 0.9 | 1.7 | 0.00 | 0.00 | 0.00 | 77 | 1018.4 |
| 20260504014621 | 63 | 154 | 1.7 | 2.6 | 0.00 | 0.00 | 0.00 | 77 | 1018.6 |
| 20260504014118 | 63 | 153 | 1.7 | 2.6 | 0.00 | 0.00 | 0.00 | 78 | 1018.7 |
| 20260504013616 | 64 | 153 | 1.7 | 1.7 | 0.00 | 0.00 | 0.00 | 77 | 1018.4 |
| 20260504013112 | 64 | 147 | 1.7 | 1.7 | 0.00 | 0.00 | 0.00 | 75 | 1018.5 |
| 20260504012610 | 65 | 149 | 1.7 | 2.6 | 0.00 | 0.00 | 0.00 | 74 | 1018.6 |
| 20260504012108 | 65 | 156 | 1.7 | 3.5 | 0.00 | 0.00 | 0.00 | 74 | 1018.7 |
| 20260504011604 | 65 | 151 | 1.7 | 2.6 | 0.00 | 0.00 | 0.00 | 73 | 1018.8 |
| 20260504011100 | 66 | 151 | 0.9 | 1.7 | 0.00 | 0.00 | 0.00 | 72 | 1018.4 |
| 20260504010556 | 66 | 152 | 0.9 | 1.7 | 0.00 | 0.00 | 0.00 | 71 | 1018.5 |
| 20260504010052 | 67 | 154 | 1.7 | 1.7 | 0.00 | 0.00 | 0.00 | 70 | 1018.5 |
| 20260504005549 | 68 | 147 | 1.7 | 2.6 | 0.00 | 0.00 | 0.00 | 68 | 1018.3 |
| 20260504005047 | 68 | 150 | 1.7 | 1.7 | 0.00 | 0.00 | 0.00 | 67 | 1018.1 |
| 20260504004544 | 69 | 153 | 2.6 | 3.5 | 0.00 | 0.00 | 0.00 | 64 | 1018.3 |
| 20260504004041 | 70 | 154 | 3.5 | 3.5 | 0.00 | 0.00 | 0.00 | 62 | 1018.5 |
| 20260504003537 | 71 | 154 | 1.7 | 3.5 | 0.00 | 0.00 | 0.00 | 60 | 1018.6 |
| 20260504003034 | 72 | 133 | 1.7 | 2.6 | 0.00 | 0.00 | 0.00 | 59 | 1018.4 |
| 20260504002531 | 73 | 149 | 3.5 | 3.5 | 0.00 | 0.00 | 0.00 | 56 | 1018.4 |
| 20260504002029 | 73 | 107 | 3.5 | 5.2 | 0.00 | 0.00 | 0.00 | 52 | 1018.2 |
| 20260504001526 | 73 | 130 | 2.6 | 5.2 | 0.00 | 0.00 | 0.00 | 52 | 1018.3 |
| 20260504001022 | 73 | 141 | 2.6 | 5.2 | 0.00 | 0.00 | 0.00 | 54 | 1018.3 |
| 20260504000519 | 73 | 147 | 3.5 | 6.1 | 0.00 | 0.00 | 0.00 | 52 | 1018.2 |
| 20260504000017 | 73 | 152 | 7.0 | 8.7 | 0.00 | 0.00 | 0.00 | 51 | 1018.3 |
| 20260503235515 | 73 | 103 | 4.3 | 8.7 | 0.00 | 0.00 | 0.00 | 52 | 1018.4 |
| 20260503235011 | 74 | 142 | 7.8 | 8.7 | 0.00 | 0.00 | 0.00 | 49 | 1018.3 |
| 20260503234509 | 74 | 143 | 5.2 | 6.1 | 0.00 | 0.00 | 0.00 | 51 | 1018.4 |
| 20260503234008 | 75 | 139 | 6.1 | 9.6 | 0.00 | 0.00 | 0.00 | 49 | 1018.5 |
| 20260503233503 | 75 | 135 | 5.2 | 7.0 | 0.00 | 0.00 | 0.00 | 50 | 1018.4 |
| 20260503232959 | 75 | 144 | 4.3 | 7.8 | 0.00 | 0.00 | 0.00 | 49 | 1018.6 |
| 20260503232456 | 75 | 137 | 5.2 | 7.8 | 0.00 | 0.00 | 0.00 | 48 | 1018.4 |
| 20260503231954 | 76 | 123 | 6.1 | 7.8 | 0.00 | 0.00 | 0.00 | 45 | 1018.9 |
| 20260503231451 | 76 | 158 | 6.1 | 7.0 | 0.00 | 0.00 | 0.00 | 47 | 1018.8 |
| 20260503230948 | 76 | 128 | 2.6 | 7.0 | 0.00 | 0.00 | 0.00 | 45 | 1018.8 |
| 20260503230444 | 76 | 143 | 4.3 | 8.7 | 0.00 | 0.00 | 0.00 | 45 | 1018.9 |
| 20260503225942 | 76 | 137 | 5.2 | 7.0 | 0.00 | 0.00 | 0.00 | 46 | 1018.8 |
| 20260503225439 | 76 | 141 | 5.2 | 7.0 | 0.00 | 0.00 | 0.00 | 48 | 1018.7 |
| 20260503224934 | 77 | 162 | 5.2 | 7.8 | 0.00 | 0.00 | 0.00 | 44 | 1018.7 |
| 20260503224432 | 77 | 152 | 5.2 | 9.6 | 0.00 | 0.00 | 0.00 | 45 | 1018.7 |
| 20260503223929 | 77 | 162 | 3.5 | 7.0 | 0.00 | 0.00 | 0.00 | 47 | 1018.9 |
| 20260503223427 | 77 | 147 | 3.5 | 7.0 | 0.00 | 0.00 | 0.00 | 46 | 1019.3 |
| 20260503222922 | 77 | 134 | 9.6 | 9.6 | 0.00 | 0.00 | 0.00 | 42 | 1019.2 |
| 20260503222421 | 77 | 127 | 7.8 | 12.2 | 0.00 | 0.00 | 0.00 | 43 | 1019.0 |
| 20260503221919 | 77 | 114 | 5.2 | 8.7 | 0.00 | 0.00 | 0.00 | 44 | 1018.9 |
| 20260503221417 | 78 | 122 | 5.2 | 7.0 | 0.00 | 0.00 | 0.00 | 40 | 1019.1 |
| 20260503220913 | 77 | 127 | 3.5 | 9.6 | 0.00 | 0.00 | 0.00 | 43 | 1019.3 |
| 20260503220410 | 77 | 134 | 3.5 | 7.0 | 0.00 | 0.00 | 0.00 | 42 | 1019.4 |
| 20260503215907 | 77 | 136 | 5.2 | 9.6 | 0.00 | 0.00 | 0.00 | 45 | 1019.4 |
| 20260503215404 | 76 | 157 | 7.8 | 8.7 | 0.00 | 0.00 | 0.00 | 45 | 1019.3 |
| 20260503214902 | 78 | 129 | 6.1 | 8.7 | 0.00 | 0.00 | 0.00 | 43 | 1019.4 |
| 20260503214359 | 78 | 145 | 3.5 | 8.7 | 0.00 | 0.00 | 0.00 | 42 | 1019.6 |
| 20260503213856 | 78 | 141 | 5.2 | 7.8 | 0.00 | 0.00 | 0.00 | 45 | 1019.6 |
| 20260503213354 | 78 | 160 | 2.6 | 8.7 | 0.00 | 0.00 | 0.00 | 43 | 1019.5 |
| 20260503212850 | 78 | 119 | 5.2 | 7.0 | 0.00 | 0.00 | 0.00 | 45 | 1019.7 |
| 20260503212348 | 78 | 125 | 7.8 | 9.6 | 0.00 | 0.00 | 0.00 | 45 | 1019.4 |
| 20260503211845 | 77 | 118 | 2.6 | 3.5 | 0.00 | 0.00 | 0.00 | 47 | 1019.6 |
| 20260503211342 | 78 | 141 | 2.6 | 7.8 | 0.00 | 0.00 | 0.00 | 42 | 1019.7 |
| 20260503210837 | 78 | 156 | 5.2 | 7.0 | 0.00 | 0.00 | 0.00 | 43 | 1020.0 |
| 20260503210335 | 78 | 151 | 5.2 | 7.8 | 0.00 | 0.00 | 0.00 | 41 | 1019.9 |
| 20260503205829 | 78 | 144 | 5.2 | 7.8 | 0.00 | 0.00 | 0.00 | 44 | 1020.0 |
| 20260503205326 | 78 | 130 | 5.2 | 8.7 | 0.00 | 0.00 | 0.00 | 45 | 1020.2 |
| 20260503204823 | 78 | 138 | 4.3 | 7.8 | 0.00 | 0.00 | 0.00 | 42 | 1020.0 |
| 20260503204320 | 79 | 138 | 2.6 | 7.8 | 0.00 | 0.00 | 0.00 | 41 | 1020.1 |
| 20260503203817 | 79 | 134 | 2.6 | 6.1 | 0.00 | 0.00 | 0.00 | 39 | 1020.1 |
| 20260503203315 | 79 | 135 | 3.5 | 7.8 | 0.00 | 0.00 | 0.00 | 37 | 1020.4 |
| 20260503202812 | 79 | 135 | 2.6 | 6.1 | 0.00 | 0.00 | 0.00 | 41 | 1020.1 |
| 20260503202310 | 79 | 134 | 2.6 | 2.6 | 0.00 | 0.00 | 0.00 | 42 | 1020.4 |
| 20260503201808 | 79 | 135 | 0.0 | 2.6 | 0.00 | 0.00 | 0.00 | 40 | 1020.4 |
| 20260503201304 | 78 | 133 | 2.6 | 3.5 | 0.00 | 0.00 | 0.00 | 39 | 1020.5 |
| 20260503200802 | 78 | 135 | 3.5 | 7.8 | 0.00 | 0.00 | 0.00 | 42 | 1020.8 |
| 20260503200257 | 79 | 134 | 2.6 | 7.8 | 0.00 | 0.00 | 0.00 | 41 | 1020.8 |
| 20260503195755 | 78 | 137 | 0.9 | 6.1 | 0.00 | 0.00 | 0.00 | 41 | 1020.8 |
| 20260503195251 | 79 | 136 | 3.5 | 7.8 | 0.00 | 0.00 | 0.00 | 45 | 1020.9 |
| 20260503194749 | 79 | 135 | 3.5 | 5.2 | 0.00 | 0.00 | 0.00 | 41 | 1020.6 |
| 20260503194244 | 78 | 135 | 1.7 | 2.6 | 0.00 | 0.00 | 0.00 | 42 | 1020.9 |
| 20260503193741 | 77 | 135 | 5.2 | 6.1 | 0.00 | 0.00 | 0.00 | 42 | 1021.0 |
| 20260503193237 | 78 | 135 | 3.5 | 5.2 | 0.00 | 0.00 | 0.00 | 42 | 1021.1 |
| 20260503192732 | 79 | 135 | 1.7 | 3.5 | 0.00 | 0.00 | 0.00 | 39 | 1021.2 |
| 20260503192228 | 79 | 136 | 0.9 | 2.6 | 0.00 | 0.00 | 0.00 | 42 | 1021.3 |
| 20260503191725 | 78 | 136 | 1.7 | 7.0 | 0.00 | 0.00 | 0.00 | 43 | 1021.3 |
| 20260503191222 | 78 | 135 | 1.7 | 8.7 | 0.00 | 0.00 | 0.00 | 40 | 1021.3 |
| 20260503190719 | 78 | 137 | 5.2 | 7.0 | 0.00 | 0.00 | 0.00 | 44 | 1021.4 |
| 20260503190216 | 78 | 136 | 2.6 | 3.5 | 0.00 | 0.00 | 0.00 | 43 | 1021.6 |
| 20260503185713 | 78 | 135 | 7.8 | 9.6 | 0.00 | 0.00 | 0.00 | 41 | 1021.6 |
| 20260503185208 | 78 | 135 | 3.5 | 5.2 | 0.00 | 0.00 | 0.00 | 43 | 1021.5 |
| 20260503184703 | 78 | 135 | 3.5 | 6.1 | 0.00 | 0.00 | 0.00 | 41 | 1021.8 |
| 20260503184200 | 78 | 135 | 4.3 | 7.8 | 0.00 | 0.00 | 0.00 | 38 | 1022.0 |
| 20260503183656 | 78 | 135 | 4.3 | 6.1 | 0.00 | 0.00 | 0.00 | 39 | 1022.0 |
| 20260503183154 | 78 | 135 | 4.3 | 6.1 | 0.00 | 0.00 | 0.00 | 37 | 1022.0 |
| 20260503182652 | 78 | 135 | 4.3 | 8.7 | 0.00 | 0.00 | 0.00 | 39 | 1022.1 |
| 20260503182150 | 78 | 136 | 3.5 | 6.1 | 0.00 | 0.00 | 0.00 | 41 | 1022.3 |
| 20260503181646 | 78 | 135 | 1.7 | 6.1 | 0.00 | 0.00 | 0.00 | 41 | 1022.2 |
| 20260503181143 | 78 | 135 | 1.7 | 5.2 | 0.00 | 0.00 | 0.00 | 41 | 1022.3 |
| 20260503180640 | 78 | 136 | 3.5 | 6.1 | 0.00 | 0.00 | 0.00 | 44 | 1022.4 |
| 20260503180138 | 77 | 136 | 0.9 | 3.5 | 0.00 | 0.00 | 0.00 | 39 | 1022.7 |
| 20260503175635 | 77 | 136 | 3.5 | 6.1 | 0.00 | 0.00 | 0.00 | 39 | 1022.7 |
| 20260503175132 | 78 | 137 | 3.5 | 7.0 | 0.00 | 0.00 | 0.00 | 39 | 1022.7 |
| 20260503174628 | 77 | 137 | 1.7 | 2.6 | 0.00 | 0.00 | 0.00 | 39 | 1022.6 |
| 20260503174126 | 77 | 137 | 3.5 | 5.2 | 0.00 | 0.00 | 0.00 | 39 | 1022.9 |
| 20260503173620 | 77 | 139 | 6.1 | 7.8 | 0.00 | 0.00 | 0.00 | 41 | 1022.9 |
| 20260503173117 | 77 | 134 | 2.6 | 9.6 | 0.00 | 0.00 | 0.00 | 38 | 1023.2 |
| 20260503172614 | 77 | 139 | 2.6 | 3.5 | 0.00 | 0.00 | 0.00 | 36 | 1023.3 |
| 20260503172112 | 77 | 139 | 0.9 | 7.0 | 0.00 | 0.00 | 0.00 | 38 | 1023.2 |
| 20260503171608 | 78 | 139 | 2.6 | 6.1 | 0.00 | 0.00 | 0.00 | 39 | 1023.3 |
| 20260503171105 | 77 | 139 | 3.5 | 5.2 | 0.00 | 0.00 | 0.00 | 40 | 1023.2 |
| 20260503170602 | 77 | 139 | 0.9 | 1.7 | 0.00 | 0.00 | 0.00 | 39 | 1023.4 |